#timestamp,LO_Frequency,Hit,StdDev 
1610485215.3,286047000.9,P
1610485235.2,286047001.9,N
1610485255.9,286047001.6,N
1610485275.7,286047004.3,Y
1610485295.6,286047001.4,P
1610485315.4,286047001.4,P
1610485335.2,286047003.6,P
1610485355.1,286047005.0,Y
1610485356.0,286047005.0,P
1610485375.8,286047008.7,P
1610485395.7,286047009.0,P
1610485415.5,286047005.5,N
1610485435.3,286046999.7,N
1610485455.2,286047000.4,N
1610485475.0,286047000.6,N
1610485475.9,286047000.6,N
1610485495.8,286047000.3,N
1610485515.6,286047000.4,N
1610485535.4,286046999.8,N
1610485555.3,286047000.8,N
1610485575.1,286047000.2,N
1610485595.9,286046999.8,N
1610485615.7,286047002.7,N
1610485635.5,286047002.8,N
1610485655.4,286047001.6,N
1610485675.2,286047002.2,N
1610485695.1,286047004.1,N
1610485696.0,286047004.1,N
1610485715.8,286047001.7,N
1610485735.6,286047001.3,N
1610485755.5,286047003.5,N
1610485775.3,286047003.5,N
1610485795.1,286047004.2,N
1610485815.9,286047004.0,N
1610485835.7,286047000.1,N
1610485855.6,286046998.2,N
1610485875.4,286046999.8,N
1610485895.2,286046999.9,N
1610485915.1,286047000.5,N
1610485916.0,286047000.5,N
1610485935.8,286046998.8,N
1610485955.7,286047000.0,N
1610485975.5,286047001.7,N
1610485995.3,286047005.2,Y
1610486015.2,286047003.5,P
1610486035.0,286047002.1,N
1610486035.9,286047002.1,N
1610486055.7,286046999.7,N
1610486075.6,286047002.4,N
1610486095.4,286047001.9,N
1610486115.3,286047001.5,N
1610486135.1,286047000.2,N
1610486155.8,286047001.2,N
1610486175.7,286047000.8,N
1610486195.5,286047001.1,N
1610486215.4,286047001.0,N
1610486235.2,286047000.6,N
1610486255.0,286047000.0,N
1610486255.9,286047000.0,N
1610486275.8,286047002.1,N
1610486295.6,286046999.7,N
1610486315.4,286047000.4,N
1610486335.3,286046999.4,N
1610486355.1,286046996.9,N
1610486375.9,286046997.4,N
1610486395.7,286046997.0,N
1610486415.5,286046997.5,N
1610486435.4,286046997.0,N
1610486455.2,286047000.8,N
1610486475.1,286047002.3,N
1610486476.0,286047002.3,N
1610486495.8,286047001.1,N
1610486515.6,286046998.3,N
1610486535.5,286046999.1,N
1610486555.3,286047003.9,N
1610486575.2,286047007.0,Y
1610486595.9,286047004.7,P
1610486615.7,286047005.0,N
1610486635.6,286047008.9,P
1610486655.4,286047008.4,N
1610486675.2,286047011.9,Y
1610486695.1,286047006.0,P
1610486696.0,286047006.0,P
1610486715.8,286047005.9,P
1610486735.7,286047001.8,Y
1610486755.5,286046992.0,P
1610486775.3,286046991.6,N
1610486795.2,286046989.0,N
1610486815.0,286046987.3,N
1610486815.9,286046987.3,N
1610486835.8,286046987.2,N
1610486855.6,286046989.3,N
1610486875.4,286046990.8,N
1610486895.3,286046991.6,N
1610486915.1,286046989.1,N
1610486935.8,286046990.3,N
1610486955.7,286046993.1,N
1610486975.5,286046993.8,N
1610486995.4,286046999.6,N
1610487015.2,286046995.3,N
1610487035.0,286046990.8,N
1610487035.9,286046990.8,N
1610487055.8,286046987.1,N
1610487075.6,286046985.5,Y
1610487095.5,286046994.0,P
1610487115.3,286046997.1,N
1610487135.1,286046996.5,N
1610487155.9,286046998.7,N
1610487175.7,286047000.2,N
1610487195.5,286046998.2,N
1610487215.4,286046997.7,N
1610487235.2,286046995.2,N
1610487255.1,286046996.2,N
1610487256.0,286046996.2,N
1610487275.8,286046993.4,N
1610487295.6,286046996.0,N
1610487315.5,286046993.6,N
1610487335.3,286046994.4,N
1610487355.2,286046994.5,N
1610487375.9,286046994.2,N
1610487395.7,286046993.9,N
1610487415.6,286046993.8,N
1610487435.4,286047000.9,N
1610487455.2,286047001.4,N
1610487475.1,286047005.9,N
1610487476.0,286047005.9,N
1610487495.8,286047005.2,N
1610487515.7,286047007.0,N
1610487535.5,286047006.2,N
1610487555.3,286047006.8,N
1610487575.2,286047005.4,N
1610487595.0,286047007.9,N
1610487595.9,286047007.9,N
1610487615.8,286047011.7,N
1610487635.6,286047010.1,N
1610487655.4,286047009.6,N
1610487675.3,286047010.3,N
1610487695.1,286047009.5,N
1610487715.8,286047010.3,N
1610487735.7,286047008.8,N
1610487755.5,286047007.5,N
1610487775.4,286047006.0,N
1610487795.2,286047005.8,N
1610487815.0,286047005.0,N
1610487815.9,286047005.0,N
1610487835.8,286047011.9,N
1610487855.6,286047013.1,N
1610487875.5,286047012.0,N
1610487895.3,286047009.5,N
1610487915.1,286047009.1,N
1610487935.9,286047008.9,N
1610487955.7,286047007.7,N
1610487975.5,286047012.7,Y
1610487995.4,286047003.5,P
1610488015.2,286047004.2,N
1610488035.1,286046998.2,N
1610488036.0,286046998.2,N
1610488055.8,286047004.4,N
1610488075.6,286047004.2,N
1610488095.5,286047001.5,N
1610488115.3,286047003.8,N
1610488135.2,286047007.4,N
1610488155.9,286047003.8,N
1610488175.7,286047001.3,N
1610488195.6,286047014.6,Y
1610488215.4,286047013.1,P
1610488235.2,286047010.5,N
1610488255.1,286047008.0,N
1610488256.0,286047008.0,N
1610488275.8,286047001.8,N
1610488295.7,286047001.1,N
1610488315.5,286046998.9,N
1610488335.3,286046998.2,N
1610488355.2,286047002.8,N
1610488375.0,286047000.3,N
1610488375.9,286047000.3,N
1610488395.8,286046997.1,N
1610488415.6,286046993.9,N
1610488435.4,286046993.1,N
1610488455.3,286046994.6,N
1610488475.1,286046992.9,N
1610488495.8,286046990.3,N
1610488515.7,286046990.6,N
1610488535.5,286046990.4,N
1610488555.4,286046990.6,N
1610488575.2,286046996.1,N
1610488595.0,286046997.9,N
1610488595.9,286046997.9,N
1610488615.8,286046999.2,N
1610488635.6,286047000.6,N
1610488655.4,286046999.0,N
1610488675.3,286046998.4,N
1610488695.1,286046999.5,N
1610488715.9,286046997.7,N
1610488735.7,286046994.9,N
1610488755.5,286047005.2,N
1610488775.4,286047015.6,Y
1610488795.2,286047018.7,P
